Weather History for La Grande, OR

Change the Weather History Date:

Sunday, April 7, 2013

  Actual Average Record
Temperature  
Mean Temperature 45 °F -  
Max Temperature 57 °F 52 °F 78 °F (1966)
Min Temperature 33 °F 31 °F 21 °F (1970)
Degree Days  
Heating Degree Days 20    
Moisture  
Dew Point 32 °F    
Average Humidity 63    
Maximum Humidity 81    
Minimum Humidity 38    
Precipitation  
Precipitation 0.13 in - - ()
Sea Level Pressure  
Sea Level Pressure 29.71 in    
Wind  
Wind Speed 8 mph (WSW)    
Max Wind Speed 33 mph    
Max Gust Speed 53 mph    
Visibility 10 miles    
Events      
Averages and records for this station are not official NWS values.
T = Trace of Precipitation, MM = Missing Value Source: NWS Daily Summary

Daily Weather History Graph

Daily Weather History Graph

Search for Another Location

Airport:

Trip Planner

Search our weather history database for the weather conditions in past years. The results will help you decide how hot, cold, wet, or windy it might be!

Date:

Astronomy

Apr. 07, 2013 Rise Set
Actual Time 6:20 AM PDT 7:28 PM PDT
Civil Twilight 5:50 AM PDT 7:58 PM PDT
Nautical Twilight 5:14 AM PDT 8:34 PM PDT
Astronomical Twilight 4:36 AM PDT 9:13 PM PDT
Moon 4:47 AM PDT (4/7) 4:59 PM PDT (4/7)
Length of Visible Light 14h 07m
Length of Day
13h 07m
Waning Crescent, 7% of the Moon is Illuminated
Apr 7
Waning Crescent
Apr 10
New
Apr 18
First Quarter
Apr 25
Full
May 2
Last Quarter

Hourly Weather History & Observations

Time (PDT) Temp. Windchill Dew Point Humidity Pressure Visibility Wind Dir Wind Speed Gust Speed Precip Events Conditions
12:15 AM 41.0 °F - 33.8 °F 76% 29.83 in 10.0 mi Calm Calm - 0.01 in   Overcast
12:35 AM 41.0 °F 38.0 °F 33.8 °F 76% 29.82 in 10.0 mi SE 4.6 mph - 0.01 in   Overcast
12:55 AM 41.0 °F 39.0 °F 33.8 °F 76% 29.81 in 10.0 mi SSE 3.5 mph - 0.01 in   Overcast
1:15 AM 39.2 °F 34.2 °F 33.8 °F 81% 29.80 in 10.0 mi ESE 6.9 mph - N/A   Overcast
1:35 AM 41.0 °F 37.1 °F 33.8 °F 76% 29.79 in 10.0 mi SE 5.8 mph - N/A   Overcast
1:55 AM 41.0 °F 38.0 °F 33.8 °F 76% 29.77 in 10.0 mi SE 4.6 mph - N/A   Mostly Cloudy
2:15 AM 39.2 °F - 33.8 °F 81% 29.76 in 10.0 mi Calm Calm - N/A   Overcast
2:35 AM 41.0 °F - 33.8 °F 76% 29.75 in 10.0 mi Calm Calm - N/A   Overcast
2:55 AM 41.0 °F 39.0 °F 33.8 °F 76% 29.74 in 10.0 mi NW 3.5 mph - N/A   Overcast
3:15 AM 41.0 °F - 33.8 °F 76% 29.73 in 7.0 mi Calm Calm - 0.04 in   Overcast
3:35 AM 41.0 °F - 33.8 °F 76% 29.71 in 7.0 mi Calm Calm - 0.07 in   Overcast
3:55 AM 41.0 °F - 33.8 °F 76% 29.70 in 10.0 mi Calm Calm - 0.08 in   Overcast
4:15 AM 42.8 °F 40.1 °F 35.6 °F 76% 29.69 in 10.0 mi SE 4.6 mph - N/A   Overcast
4:35 AM 41.0 °F 39.0 °F 33.8 °F 76% 29.68 in 10.0 mi East 3.5 mph - 0.01 in   Overcast
4:55 AM 42.8 °F 38.6 °F 35.6 °F 76% 29.67 in 10.0 mi SSE 6.9 mph - 0.01 in   Mostly Cloudy
5:15 AM 42.8 °F 38.6 °F 35.6 °F 76% 29.67 in 10.0 mi South 6.9 mph - N/A   Overcast
5:35 AM 42.8 °F 39.3 °F 35.6 °F 76% 29.66 in 10.0 mi South 5.8 mph - N/A   Overcast
5:55 AM 42.8 °F 41.1 °F 35.6 °F 76% 29.66 in 10.0 mi SSE 3.5 mph - N/A   Overcast
6:15 AM 42.8 °F 38.6 °F 37.4 °F 81% 29.65 in 10.0 mi South 6.9 mph - N/A   Overcast
6:35 AM 42.8 °F 37.0 °F 35.6 °F 76% 29.64 in 10.0 mi South 10.4 mph - N/A   Overcast
6:55 AM 44.6 °F 37.8 °F 35.6 °F 71% 29.64 in 10.0 mi SSW 15.0 mph 18.4 mph N/A   Overcast
7:15 AM 44.6 °F 38.8 °F 35.6 °F 71% 29.63 in 10.0 mi South 11.5 mph - N/A   Overcast
7:35 AM 44.6 °F 39.2 °F 37.4 °F 76% 29.62 in 10.0 mi South 10.4 mph - N/A   Overcast
7:55 AM 46.4 °F 40.4 °F 37.4 °F 71% 29.62 in 10.0 mi South 13.8 mph - N/A   Mostly Cloudy
8:15 AM 44.6 °F 38.4 °F 35.6 °F 71% 29.66 in 4.0 mi West 12.7 mph 33.4 mph N/A   Mostly Cloudy
8:35 AM 42.8 °F - 33.8 °F 70% 29.64 in 10.0 mi Calm Calm - 0.01 in   Mostly Cloudy
8:55 AM 44.6 °F 39.7 °F 33.8 °F 66% 29.64 in 10.0 mi NNE 9.2 mph - 0.01 in   Overcast
9:15 AM 46.4 °F 41.9 °F 37.4 °F 71% 29.64 in 10.0 mi NE 9.2 mph - N/A   Scattered Clouds
9:35 AM 46.4 °F 41.5 °F 35.6 °F 66% 29.64 in 10.0 mi ENE 10.4 mph - N/A   Mostly Cloudy
9:55 AM 50.0 °F - 39.2 °F 66% 29.64 in 10.0 mi ENE 8.1 mph - N/A   Mostly Cloudy
10:15 AM 46.4 °F 42.4 °F 33.8 °F 62% 29.65 in 10.0 mi SW 8.1 mph 25.3 mph N/A   Mostly Cloudy
10:35 AM 50.0 °F - 35.6 °F 58% 29.65 in 10.0 mi West 13.8 mph 24.2 mph N/A   Mostly Cloudy
10:55 AM 53.6 °F - 37.4 °F 54% 29.66 in 10.0 mi West 21.9 mph 35.7 mph N/A   Scattered Clouds
11:15 AM 51.8 °F - 33.8 °F 50% 29.66 in 10.0 mi WSW 17.3 mph 25.3 mph N/A   Partly Cloudy
11:35 AM 53.6 °F - 33.8 °F 47% 29.65 in 10.0 mi West 16.1 mph 32.2 mph N/A   Clear
11:55 AM 51.8 °F - 32.0 °F 47% 29.66 in 10.0 mi West 23.0 mph 32.2 mph N/A   Partly Cloudy
12:15 PM 51.8 °F - 32.0 °F 47% 29.65 in 10.0 mi West 32.2 mph 52.9 mph N/A   Scattered Clouds
12:35 PM 55.4 °F - 30.2 °F 38% 29.65 in 10.0 mi West 33.4 mph 46.0 mph N/A   Clear
12:55 PM 55.4 °F - 30.2 °F 38% 29.66 in 10.0 mi West 23.0 mph 36.8 mph N/A   Clear
1:15 PM 57.2 °F - 33.8 °F 41% 29.65 in 10.0 mi West 16.1 mph 25.3 mph N/A   Partly Cloudy
1:35 PM 48.2 °F - 28.4 °F 46% 29.69 in 10.0 mi WNW 26.5 mph 40.3 mph N/A   Mostly Cloudy
1:55 PM 46.4 °F 38.7 °F 28.4 °F 50% 29.70 in 10.0 mi West 20.7 mph 33.4 mph N/A   Mostly Cloudy
2:15 PM 51.8 °F - 33.8 °F 50% 29.70 in 10.0 mi West 17.3 mph 21.9 mph N/A   Partly Cloudy
2:35 PM 53.6 °F - 30.2 °F 41% 29.69 in 10.0 mi NW 16.1 mph 20.7 mph N/A   Clear
2:55 PM 53.6 °F - 30.2 °F 41% 29.70 in 10.0 mi WNW 20.7 mph 32.2 mph N/A   Scattered Clouds
3:15 PM 48.2 °F - 28.4 °F 46% 29.71 in 10.0 mi WNW 17.3 mph 31.1 mph N/A   Scattered Clouds
3:35 PM 46.4 °F 38.1 °F 26.6 °F 46% 29.74 in 10.0 mi West 24.2 mph 38.0 mph N/A   Mostly Cloudy
3:55 PM 46.4 °F 39.2 °F 30.2 °F 53% 29.72 in 10.0 mi WNW 18.4 mph 28.8 mph N/A   Scattered Clouds
4:15 PM 48.2 °F - 28.4 °F 46% 29.73 in 10.0 mi WNW 15.0 mph 19.6 mph N/A   Clear
4:35 PM 48.2 °F - 28.4 °F 46% 29.73 in 10.0 mi NW 9.2 mph - N/A   Scattered Clouds
4:55 PM 46.4 °F 41.1 °F 28.4 °F 50% 29.76 in 8.0 mi WNW 11.5 mph 26.5 mph N/A   Overcast
5:15 PM 44.6 °F 40.2 °F 28.4 °F 53% 29.75 in 10.0 mi NNW 8.1 mph - N/A   Mostly Cloudy
5:35 PM 42.8 °F 41.1 °F 26.6 °F 53% 29.75 in 10.0 mi ENE 3.5 mph - N/A   Overcast
5:55 PM 44.6 °F 42.2 °F 28.4 °F 53% 29.75 in 10.0 mi NE 4.6 mph - N/A   Mostly Cloudy
6:15 PM 44.6 °F 40.7 °F 28.4 °F 53% 29.75 in 10.0 mi NE 6.9 mph - N/A   Mostly Cloudy
6:35 PM 44.6 °F 41.4 °F 28.4 °F 53% 29.74 in 10.0 mi ENE 5.8 mph - N/A   Mostly Cloudy
6:55 PM 44.6 °F 40.7 °F 26.6 °F 49% 29.74 in 10.0 mi East 6.9 mph - N/A   Overcast
7:15 PM 41.0 °F 36.4 °F 26.6 °F 57% 29.76 in 8.0 mi West 6.9 mph 31.1 mph N/A   Mostly Cloudy
7:35 PM 39.2 °F 35.9 °F 26.6 °F 61% 29.75 in 8.0 mi NW 4.6 mph 23.0 mph 0.01 in   Overcast
7:55 PM 39.2 °F 37.0 °F 28.4 °F 65% 29.76 in 10.0 mi SSE 3.5 mph - 0.01 in   Overcast
8:15 PM 37.4 °F 32.8 °F 26.6 °F 65% 29.75 in 10.0 mi SE 5.8 mph - N/A   Scattered Clouds
8:35 PM 37.4 °F 30.3 °F 26.6 °F 65% 29.76 in 10.0 mi SE 10.4 mph - 0.01 in   Clear
8:55 PM 35.6 °F 28.0 °F 26.6 °F 70% 29.77 in 10.0 mi SE 10.4 mph - 0.01 in   Clear
9:15 PM 37.4 °F - 28.4 °F 70% 29.77 in 10.0 mi Calm Calm - N/A   Partly Cloudy
9:35 PM 35.6 °F 32.8 °F 26.6 °F 70% 29.77 in 10.0 mi SE 3.5 mph - N/A   Clear
9:55 PM 35.6 °F - 26.6 °F 70% 29.77 in 10.0 mi Calm Calm - N/A   Clear
10:15 PM 35.6 °F 31.7 °F 26.6 °F 70% 29.77 in 10.0 mi SSW 4.6 mph - N/A   Clear
10:35 PM 33.8 °F 30.8 °F 26.6 °F 75% 29.77 in 10.0 mi SSW 3.5 mph - N/A   Clear
10:55 PM 35.6 °F - 26.6 °F 70% 29.76 in 10.0 mi Calm Calm - N/A   Clear
11:15 PM 33.8 °F 27.0 °F 24.8 °F 70% 29.77 in 10.0 mi NW 8.1 mph - N/A   Clear
11:35 PM 33.8 °F 27.7 °F 24.8 °F 70% 29.77 in 10.0 mi NW 6.9 mph - N/A   Clear
11:55 PM 33.8 °F 27.7 °F 24.8 °F 70% 29.77 in 10.0 mi NW 6.9 mph - N/A   Clear